| time (UTC) | temp F | wind direction | speed MPH | gust MPH | rain 1hr in | rain 24hr in | rain mn in | humidity % | barometer mb |
| 20260509160032 | 91 | 198 | 3.0 | 11.0 | 0.00 | 0.00 | 0.00 | 60 | 1011.5 |
| 20260509154534 | 90 | 198 | 3.0 | 12.0 | 0.00 | 0.00 | 0.00 | 61 | 1011.9 |
| 20260509153032 | 90 | 158 | 2.0 | 8.0 | 0.00 | 0.00 | 0.00 | 62 | 1011.9 |
| 20260509151527 | 89 | 129 | 1.0 | 9.0 | 0.00 | 0.00 | 0.00 | 66 | 1012.1 |
| 20260509150026 | 88 | 215 | 2.0 | 7.0 | 0.00 | 0.00 | 0.00 | 66 | 1012.1 |
| 20260509144521 | 87 | 214 | 1.0 | 5.0 | 0.00 | 0.00 | 0.00 | 71 | 1012.2 |
| 20260509143019 | 86 | 231 | 2.0 | 7.0 | 0.00 | 0.00 | 0.00 | 75 | 1012.0 |
| 20260509141530 | 84 | 216 | 4.0 | 9.0 | 0.00 | 0.00 | 0.00 | 78 | 1012.0 |
| 20260509140011 | 84 | 200 | 1.0 | 5.0 | 0.00 | 0.00 | 0.00 | 84 | 1012.0 |
| 20260509134508 | 83 | 148 | 1.0 | 4.0 | 0.00 | 0.00 | 0.00 | 86 | 1012.2 |
| 20260509133005 | 81 | 136 | 1.0 | 4.0 | 0.00 | 0.00 | 0.00 | 88 | 1012.3 |
| 20260509131505 | 80 | 173 | 1.0 | 4.0 | 0.00 | 0.00 | 0.00 | 90 | 1012.2 |
| 20260509124558 | 77 | 190 | 1.0 | 5.0 | 0.00 | 0.00 | 0.00 | 93 | 1011.9 |
| 20260509123057 | 77 | 205 | 0.0 | 2.0 | 0.00 | 0.00 | 0.00 | 95 | 1011.8 |
| 20260509121549 | 76 | 179 | 0.0 | 2.0 | 0.00 | 0.00 | 0.00 | 96 | 1011.6 |
| 20260509120046 | 75 | 198 | 0.0 | 2.0 | 0.00 | 0.00 | 0.00 | 97 | 1011.7 |
| 20260509114546 | 74 | 203 | 0.0 | 2.0 | 0.00 | 0.00 | 0.00 | 97 | 1011.5 |
| 20260509113104 | 74 | 201 | 0.0 | 3.0 | 0.00 | 0.00 | 0.00 | 97 | 1011.4 |
| 20260509111548 | 74 | 155 | 0.0 | 2.0 | 0.00 | 0.00 | 0.00 | 97 | 1011.2 |
| 20260509110044 | 74 | 145 | 0.0 | 1.0 | 0.00 | 0.00 | 0.00 | 97 | 1011.2 |
| 20260509104554 | 73 | 144 | 0.0 | 1.0 | 0.00 | 0.00 | 0.00 | 97 | 1011.1 |
| 20260509103052 | 73 | 139 | 0.0 | 1.0 | 0.00 | 0.00 | 0.00 | 97 | 1011.0 |
| 20260509101543 | 73 | 138 | 0.0 | 0.0 | 0.00 | 0.00 | 0.00 | 97 | 1011.0 |
| 20260509100059 | 73 | 138 | 0.0 | 1.0 | 0.00 | 0.00 | 0.00 | 97 | 1011.0 |
| 20260509094548 | 73 | 137 | 0.0 | 1.0 | 0.00 | 0.00 | 0.00 | 97 | 1010.9 |
| 20260509093043 | 73 | 138 | 0.0 | 1.0 | 0.00 | 0.00 | 0.00 | 97 | 1010.9 |
| 20260509091544 | 72 | 137 | 0.0 | 1.0 | 0.00 | 0.00 | 0.00 | 97 | 1010.9 |
| 20260509090039 | 72 | 137 | 0.0 | 0.0 | 0.00 | 0.00 | 0.00 | 97 | 1010.9 |
| 20260509084537 | 73 | 137 | 0.0 | 1.0 | 0.00 | 0.00 | 0.00 | 97 | 1011.0 |
| 20260509083043 | 73 | 19 | 0.0 | 0.0 | 0.00 | 0.00 | 0.00 | 97 | 1011.1 |
| 20260509081535 | 73 | 19 | 0.0 | 0.0 | 0.00 | 0.00 | 0.00 | 97 | 1011.2 |
| 20260509080041 | 73 | 19 | 0.0 | 1.0 | 0.00 | 0.00 | 0.00 | 97 | 1011.3 |
| 20260509074537 | 73 | 19 | 0.0 | 1.0 | 0.00 | 0.00 | 0.00 | 97 | 1011.3 |
| 20260509073038 | 73 | 19 | 0.0 | 1.0 | 0.00 | 0.00 | 0.00 | 96 | 1011.3 |
| 20260509071531 | 73 | 19 | 0.0 | 0.0 | 0.00 | 0.00 | 0.00 | 96 | 1011.3 |
| 20260509070030 | 73 | 19 | 0.0 | 1.0 | 0.00 | 0.00 | 0.00 | 96 | 1011.4 |
| 20260509064531 | 73 | 223 | 0.0 | 0.0 | 0.00 | 0.00 | 0.00 | 96 | 1011.4 |
| 20260509063024 | 73 | 222 | 0.0 | 0.0 | 0.00 | 0.00 | 0.00 | 95 | 1011.4 |
| 20260509061535 | 74 | 222 | 0.0 | 1.0 | 0.00 | 0.00 | 0.00 | 95 | 1011.7 |
| 20260509060022 | 74 | 224 | 0.0 | 1.0 | 0.00 | 0.00 | 0.00 | 95 | 1011.7 |
| 20260509054521 | 74 | 214 | 0.0 | 2.0 | 0.00 | 0.00 | 0.00 | 96 | 1011.8 |
| 20260509053030 | 74 | 221 | 0.0 | 1.0 | 0.00 | 0.00 | 0.00 | 95 | 1011.9 |
| 20260509051517 | 74 | 223 | 0.0 | 1.0 | 0.00 | 0.00 | 0.00 | 95 | 1012.1 |
| 20260509050017 | 75 | 240 | 0.0 | 3.0 | 0.00 | 0.00 | 0.00 | 95 | 1012.4 |
| 20260509044514 | 75 | 240 | 0.0 | 2.0 | 0.00 | 0.00 | 0.00 | 95 | 1012.1 |
| 20260509043013 | 75 | 226 | 0.0 | 1.0 | 0.00 | 0.00 | 0.00 | 95 | 1012.0 |
| 20260509041511 | 75 | 157 | 0.0 | 1.0 | 0.00 | 0.00 | 0.00 | 95 | 1011.9 |
| 20260509040009 | 75 | 154 | 0.0 | 0.0 | 0.00 | 0.00 | 0.00 | 95 | 1011.9 |
| 20260509034508 | 75 | 156 | 0.0 | 0.0 | 0.00 | 0.00 | 0.00 | 95 | 1011.9 |
| 20260509033008 | 75 | 157 | 0.0 | 0.0 | 0.00 | 0.00 | 0.00 | 95 | 1011.9 |
| 20260509031508 | 75 | 149 | 0.0 | 0.0 | 0.00 | 0.00 | 0.00 | 95 | 1011.8 |
| 20260509030008 | 75 | 149 | 0.0 | 0.0 | 0.00 | 0.00 | 0.00 | 94 | 1012.0 |
| 20260509024507 | 76 | 150 | 0.0 | 0.0 | 0.00 | 0.00 | 0.00 | 94 | 1012.0 |
| 20260509023006 | 76 | 150 | 0.0 | 0.0 | 0.00 | 0.00 | 0.00 | 94 | 1012.0 |
| 20260509021508 | 76 | 149 | 0.0 | 0.0 | 0.00 | 0.00 | 0.00 | 94 | 1011.8 |
| 20260509020005 | 76 | 150 | 0.0 | 0.0 | 0.00 | 0.00 | 0.00 | 93 | 1011.7 |
| 20260509014506 | 77 | 149 | 0.0 | 0.0 | 0.00 | 0.00 | 0.00 | 93 | 1011.5 |
| 20260509013005 | 77 | 164 | 0.0 | 1.0 | 0.00 | 0.00 | 0.00 | 93 | 1011.5 |
| 20260509011504 | 77 | 142 | 0.0 | 1.0 | 0.00 | 0.00 | 0.00 | 92 | 1011.4 |
| 20260509010003 | 78 | 155 | 0.0 | 1.0 | 0.00 | 0.00 | 0.00 | 91 | 1011.3 |
| 20260509004503 | 78 | 134 | 0.0 | 1.0 | 0.00 | 0.00 | 0.00 | 91 | 1011.3 |
| 20260509003006 | 78 | 149 | 0.0 | 2.0 | 0.00 | 0.00 | 0.00 | 90 | 1011.1 |
| 20260509001503 | 79 | 152 | 0.0 | 2.0 | 0.00 | 0.00 | 0.00 | 89 | 1011.0 |
| 20260509000002 | 80 | 134 | 0.0 | 2.0 | 0.00 | 0.00 | 0.00 | 88 | 1010.8 |
| 20260508234502 | 80 | 157 | 0.0 | 2.0 | 0.00 | 0.00 | 0.00 | 86 | 1010.5 |
| 20260508233002 | 81 | 122 | 0.0 | 3.0 | 0.00 | 0.00 | 0.00 | 85 | 1010.4 |
| 20260508231501 | 82 | 149 | 0.0 | 4.0 | 0.00 | 0.00 | 0.00 | 83 | 1010.3 |
| 20260508230103 | 83 | 141 | 2.0 | 6.0 | 0.00 | 0.00 | 0.00 | 81 | 1010.2 |
| 20260508224609 | 83 | 172 | 0.0 | 6.0 | 0.00 | 0.00 | 0.00 | 80 | 1010.1 |
| 20260508223059 | 83 | 203 | 2.0 | 6.0 | 0.00 | 0.00 | 0.00 | 77 | 1010.1 |
| 20260508221559 | 84 | 146 | 1.0 | 4.0 | 0.00 | 0.00 | 0.00 | 77 | 1010.0 |
| 20260508220057 | 85 | 125 | 2.0 | 4.0 | 0.00 | 0.00 | 0.00 | 75 | 1010.1 |
| 20260508214636 | 87 | 123 | 1.0 | 6.0 | 0.00 | 0.00 | 0.00 | 73 | 1010.1 |
| 20260508213055 | 87 | 144 | 0.0 | 7.0 | 0.00 | 0.00 | 0.00 | 74 | 1010.3 |
| 20260508211554 | 87 | 204 | 0.0 | 5.0 | 0.00 | 0.00 | 0.00 | 74 | 1010.3 |
| 20260508210055 | 87 | 158 | 0.0 | 7.0 | 0.00 | 0.00 | 0.00 | 74 | 1010.4 |
| 20260508204552 | 87 | 180 | 1.0 | 7.0 | 0.00 | 0.00 | 0.00 | 74 | 1010.5 |
| 20260508203106 | 87 | 146 | 0.0 | 7.0 | 0.00 | 0.00 | 0.00 | 73 | 1010.8 |
| 20260508201550 | 88 | 83 | 2.0 | 7.0 | 0.00 | 0.00 | 0.00 | 74 | 1010.7 |
| 20260508200049 | 88 | 132 | 1.0 | 7.0 | 0.00 | 0.00 | 0.00 | 74 | 1010.9 |
| 20260508194553 | 88 | 23 | 2.0 | 9.0 | 0.00 | 0.00 | 0.00 | 73 | 1011.2 |
| 20260508193051 | 88 | 63 | 0.0 | 8.0 | 0.00 | 0.00 | 0.00 | 74 | 1011.4 |
| 20260508191543 | 88 | 107 | 3.0 | 10.0 | 0.00 | 0.00 | 0.00 | 72 | 1011.6 |
| 20260508190041 | 88 | 107 | 1.0 | 9.0 | 0.00 | 0.00 | 0.00 | 73 | 1011.8 |
| 20260508184542 | 87 | 153 | 2.0 | 7.0 | 0.00 | 0.00 | 0.00 | 74 | 1012.0 |
| 20260508183040 | 88 | 49 | 0.0 | 8.0 | 0.00 | 0.00 | 0.00 | 72 | 1012.3 |
| 20260508181543 | 87 | 122 | 1.0 | 9.0 | 0.00 | 0.00 | 0.00 | 72 | 1012.2 |
| 20260508180039 | 87 | 7 | 1.0 | 10.0 | 0.00 | 0.00 | 0.00 | 72 | 1012.3 |
| 20260508174538 | 87 | 142 | 0.0 | 9.0 | 0.00 | 0.00 | 0.00 | 73 | 1012.4 |
| 20260508173035 | 86 | 44 | 2.0 | 10.0 | 0.00 | 0.00 | 0.00 | 73 | 1012.6 |
| 20260508171537 | 86 | 4 | 4.0 | 10.0 | 0.00 | 0.00 | 0.00 | 71 | 1012.7 |
| 20260508170034 | 87 | 74 | 2.0 | 9.0 | 0.00 | 0.00 | 0.00 | 71 | 1013.0 |
| 20260508164533 | 87 | 69 | 1.0 | 12.0 | 0.00 | 0.00 | 0.00 | 72 | 1013.1 |
| 20260508163036 | 86 | 27 | 1.0 | 7.0 | 0.00 | 0.00 | 0.00 | 73 | 1013.3 |
| 20260508161534 | 87 | 37 | 2.0 | 5.0 | 0.00 | 0.00 | 0.00 | 73 | 1013.4 |